Location: Cabeza de los Veneras
(40.2000°N, 5.2000°W)
Time: 02:56:35
(UTC+00:00)

CARTOSAT-1 - Pass Details

Date: 18 April 2024
Orbit: 606 x 609 km, 97.6° (Epoch: 25 May)

Event Time Altitude Azimuth Distance (km) Brightness Sun altitude
Exits shadow 20:40:23 15° 182° (S) 1,643 5.4 -17.8°
Maximum altitude 20:43:47 59° 259° (W) 706 4.0 -18.3°
Drops below altitude 10° 20:48:02 10° 340° (NNW) 1,972 6.9 -19.0°
Sets 20:50:15 0° 344° (NNW) 2,880 7.8 -19.3°
